Location: Home
(42.5358°N, 72.7383°W)
Time: 00:36:32
(UTC-05:00)

Vanguard 3 - Pass Details

Date: 03 December 2021
Orbit: 508 x 3260 km, 33.3° (Epoch: 21 January)

Event Time Altitude Azimuth Distance (km) Brightness Sun altitude
Rises 09:07:15 0° 278° (W) 6,743 11.4 16.2°
Reaches altitude 10° 09:12:51 10° 270° (W) 5,353 11.0 16.8°
Maximum altitude 09:24:54 32° 216° (SW) 2,849 10.4 18.1°
Drops below altitude 10° 09:32:36 10° 157° (SSE) 3,365 12.5 18.8°
Sets 09:35:16 0° 146° (SE) 4,011 12.4 19.1°
